DELTA 1 DEB, 10646

Orbit data source: Space-Track

DELTA 1 DEB, 10646 is space debris in SSO originally from a launch on Thu, 29 Jul 1976 UTC launched from the Air Force Western Test Range (AFWTR). Debris objects in space refer to the collection of defunct objects orbiting the Earth. Examples of debris include non-operational satellites, rocket bodies, and fragments generated from explosions, collisions, or faulty payload assembly.

Loading next visibility...
Identifier
10646, 1976-077G
Orbit
SSO
Country
Flag of USUS
Related business
Manufacturer
Unknown
Mission
Spacecraft
Bus & Motor
Unknown
Mass
Unknown
Launch date (UTC)
1976-07-29 (50 years ago)
Launch vehicle
Unknown
Launch site
Air Force Western Test Range (AFWTR)
Object type
Payload
Rocket body
Debris
Shape & HBR
Unknown shape, 0.4 m
Radar Cross Section
Medium (>0.1 m² and <1 m²)

Expand to show TLE details & history
Last TLE update: 2 days ago

TLE from 2 days ago
0 DELTA 1 DEB
1 10646U 76077G   26171.41002294 -.00000056  00000-0 -11186-3 0  9996
2 10646 102.6572 123.0157 0144300 359.9603 115.0178 12.14467609212725
Epoch: 2026-06-20T09:50Z
TLE epoch observation values (Epoch: 2026-06-20T09:50:25.982Z)
Latitude
60.95123°
Longitude
-89.48959°
Altitude
1,677.056 km
Speed
7.019 km/s
True Right ascension
21h 46m 58s
True Declination
60° 49' 18"
Sunlit
Object was in daylight at epoch
Visualization orbit readout
Latitude
Unknown
Longitude
Unknown
Altitude
Unknown
Speed
Unknown
Apparent Right ascension
Unknown
Apparent Declination
Unknown
Sunlit
N/A
Visualization observer readout
Local Sidereal Time
23:27:22
Azimuth
Unknown
Elevation
Unknown
Doppler factor
Unknown
Orbital elements
Apogee altitude
1,729.709 km
Perigee altitude
1,499.045 km
Semi-major axis
7,992.514 km
Eccentricity
0.01443
Inclination
102.6572°
RAAN
123.0157°
Arg. of periapsis
359.9603°
True anomaly
116.5047°
Mean anomaly
115.0178°
Eccentric anomaly
115.7624°
Mean motion
3.03751 °/min
Orbital period
118.52 mins
BSTAR
-0.00011186
Loading maneuver chart data...
Computing Atmospheric mass density...
Loading historical data...
Loading historical data...
Loading historical data...
Loading historical data...
Loading historical data...
Loading historical data...
Loading historical data...

Documentation

Showing up to 5 results
|